20050430,000017,1328250,34.393732,-122.269278,3.7,16.508,32.941,42.066,1533.90,0.0,0.651,15.531,15.493, NaN,24.049,   NaN,14.54,1020.92,81.97,14.95,294.0,293.8,4.4,5.3,307.5,309.1,4.0,4.9,NaN, NaN,16.7,3.1,15.5,1114819218,1114819218,1,1.9,000018,000018,25.2,34.393585,-122.269377,1.03,NaN,NaN,16.512, NaN,NaN,NaN, NaN, NaN
20050430,000048,1328281,34.393938,-122.269198,3.7,16.511,32.940,42.066,1597.18,0.0,0.651,15.528,15.490, NaN,24.047,   NaN,14.54,1020.86,82.11,14.94,295.2,295.4,4.5,5.4,309.9,311.8,4.1,5.0,NaN, NaN,15.8,356.9,357.9,1114819248,1114819248,1,1.9,000048,000048,24.4,34.393787,-122.269292,0.74,NaN,NaN,16.515, NaN,NaN,NaN, NaN, NaN
20050430,000117,1328310,34.394120,-122.269113,3.7,16.508,32.945,42.069,1696.28,0.0,0.651,15.521,15.486, NaN,24.051,   NaN,14.57,1020.88,82.46,14.98,299.1,299.6,4.5,5.2,314.9,316.6,4.1,4.8,NaN, NaN,16.1,38.0,25.7,1114819278,1114819278,1,1.5,000077,000078,25.9,34.393972,-122.269215,0.69,NaN,NaN,16.512, NaN,NaN,NaN, NaN, NaN
20050430,000147,1328340,34.394313,-122.269025,3.7,16.511,32.943,42.070,1699.00,0.0,0.651,15.519,15.484, NaN,24.050,   NaN,14.52,1020.88,82.27,14.97,303.3,303.2,4.3,4.9,322.2,323.9,3.9,4.5,NaN, NaN,16.5,97.4,69.5,1114819308,1114819308,1,1.7,000107,000108,33.2,34.394180,-122.269137,0.80,NaN,NaN,16.515, NaN,NaN,NaN, NaN, NaN
20050430,000217,1328370,34.394530,-122.268928,3.7,16.515,32.939,42.070,1727.92,0.0,0.670,15.518,15.482, NaN,24.046,   NaN,14.44,1020.87,82.34,14.91,296.5,295.2,3.9,4.9,320.8,321.9,3.6,4.5,NaN, NaN,16.0,16.4,8.8,1114819338,1114819338,1,1.8,000138,000138,45.1,34.394418,-122.269065,0.94,NaN,NaN,16.519, NaN,NaN,NaN, NaN, NaN
20050430,000248,1328401,34.394730,-122.268780,3.7,16.513,32.943,42.072,1424.59,0.0,0.651,15.515,15.481, NaN,24.049,   NaN,14.51,1020.86,82.62,14.92,288.4,284.0,3.5,5.0,319.9,320.0,3.1,4.6,NaN, NaN,17.1,5.3,20.8,1114819368,1114819368,1,2.2,000168,000168,59.9,34.394652,-122.268925,1.25,NaN,NaN,16.517, NaN,NaN,NaN, NaN, NaN
20050430,000317,1328430,34.394880,-122.268560,3.7,16.514,32.945,42.075,1135.49,0.0,0.633,15.514,15.479, NaN,24.050,   NaN,14.41,1020.83,82.23,14.89,287.0,276.5,2.4,5.0,303.0,326.4,2.4,4.7,NaN, NaN,16.6,77.4,57.2,1114819398,1114819398,1,1.6,000198,000198,76.2,34.394853,-122.268713,1.33,NaN,NaN,16.518, NaN,NaN,NaN, NaN, NaN
20050430,000347,1328460,34.395010,-122.268298,3.7,16.513,32.945,42.074,1442.77,0.0,0.651,15.515,15.481, NaN,24.051,   NaN,14.49,1020.87,82.75,14.87,258.1,262.7,1.7,4.7,286.7,326.5,2.0,4.6,NaN, NaN,16.7,33.6,45.7,1114819428,1114819428,1,2.5,000228,000228,90.9,34.394983,-122.268450,1.57,NaN,NaN,16.517, NaN,NaN,NaN, NaN, NaN
20050430,000417,1328490,34.395025,-122.268005,3.7,16.510,32.947,42.074,1600.50,0.0,0.651,15.512,15.477, NaN,24.053,   NaN,14.56,1020.90,82.75,14.87,255.4,249.4,1.6,4.2,291.8,325.9,1.9,4.3,NaN, NaN,16.9,92.5,83.5,1114819458,1114819458,1,1.8,000258,000258,103.1,34.395048,-122.268130,1.98,NaN,NaN,16.514, NaN,NaN,NaN, NaN, NaN
20050430,000447,1328520,34.395023,-122.267722,3.7,16.507,32.951,42.075,1754.82,0.0,0.651,15.509,15.471, NaN,24.056,   NaN,14.73,1020.86,82.96,14.98,240.6,237.5,1.7,3.7,302.8,327.7,2.1,4.0,NaN, NaN,16.0,146.7,110.1,1114819488,1114819488,1,1.6,000288,000288,122.5,34.395070,-122.267825,1.74,NaN,NaN,16.511, NaN,NaN,NaN, NaN, NaN
20050430,000517,1328550,34.394968,-122.267533,3.7,16.502,32.956,42.076,1636.27,0.0,0.651,15.503,15.465, NaN,24.061,   NaN,14.92,1020.88,82.84,15.13,212.3,219.9,2.5,4.0,322.4,333.4,3.1,4.4,NaN, NaN,16.0,199.4,127.8,1114819518,1114819518,1,1.3,000318,000318,147.5,34.395038,-122.267575,1.68,NaN,NaN,16.506, NaN,NaN,NaN, NaN, NaN
20050430,000547,1328580,34.394882,-122.267460,3.7,16.501,32.958,42.077,1588.82,0.0,0.670,15.501,15.464, NaN,24.063,   NaN,14.94,1020.91,82.41,15.16,190.5,190.2,3.5,4.2,329.9,331.4,3.9,4.6,NaN, NaN,16.8,89.3,158.2,1114819548,1114819548,1,0.9,000347,000348,170.4,34.394963,-122.267437,1.46,NaN,NaN,16.505, NaN,NaN,NaN, NaN, NaN
20050430,000617,1328610,34.394782,-122.267458,3.7,16.497,32.961,42.078,1764.69,0.0,0.689,15.503,15.466, NaN,24.067,   NaN,14.96,1020.88,82.17,15.14,155.4,157.8,4.2,4.3,322.2,324.6,4.6,4.7,NaN, NaN,17.2,151.0,167.7,1114819578,1114819578,1,0.8,000378,000378,190.0,34.394845,-122.267382,1.57,NaN,NaN,16.501, NaN,NaN,NaN, NaN, NaN
20050430,000647,1328640,34.394663,-122.267530,3.7,16.496,32.961,42.076,1761.47,0.0,0.651,15.507,15.469, NaN,24.067,   NaN,15.01,1020.87,81.98,15.19,131.0,136.9,4.4,4.8,318.6,324.0,4.7,5.2,NaN, NaN,17.3,228.8,227.0,1114819608,1114819608,1,1.2,000408,000408,193.5,34.394725,-122.267450,1.65,NaN,NaN,16.500, NaN,NaN,NaN, NaN, NaN
20050430,000717,1328670,34.394537,-122.267610,3.7,16.497,32.960,42.076,1774.70,0.0,0.670,15.511,15.474, NaN,24.065,   NaN,15.11,1020.90,82.02,15.25,126.7,132.1,4.1,4.3,324.2,329.4,4.4,4.6,NaN, NaN,16.8,225.0,238.0,1114819638,1114819638,1,1.2,000438,000438,186.0,34.394607,-122.267552,1.83,NaN,NaN,16.501, NaN,NaN,NaN, NaN, NaN
20050430,000747,1328700,34.394377,-122.267673,3.7,16.501,32.955,42.075,1752.25,0.0,0.689,15.514,15.480, NaN,24.061,   NaN,15.18,1020.89,81.81,15.35,134.2,139.8,3.8,3.9,326.3,331.5,4.1,4.2,NaN, NaN,18.7,222.3,206.9,1114819668,1114819668,1,1.1,000468,000468,168.9,34.394468,-122.267658,1.84,NaN,NaN,16.505, NaN,NaN,NaN, NaN, NaN
20050430,000818,1328731,34.394268,-122.267665,3.7,16.492,32.962,42.074,1685.75,0.0,0.670,15.516,15.480, NaN,24.069,   NaN,15.11,1020.92,81.54,15.29,153.4,153.0,4.0,4.0,328.3,327.9,4.3,4.3,NaN, NaN,18.5,229.4,148.1,1114819698,1114819698,1,0.4,000498,000498,149.5,34.394348,-122.267707,1.39,NaN,NaN,16.496, NaN,NaN,NaN, NaN, NaN
20050430,000847,1328760,34.394202,-122.267628,3.6,16.501,32.953,42.073,1705.36,0.0,0.670,15.519,15.485, NaN,24.060,   NaN,15.11,1020.93,81.53,15.23,178.7,174.1,4.2,4.1,333.3,329.4,4.5,4.4,NaN, NaN,18.6,147.3,146.7,1114819728,1114819728,1,0.6,000528,000528,134.2,34.394263,-122.267703,1.06,NaN,NaN,16.505, NaN,NaN,NaN, NaN, NaN
20050430,000917,1328790,34.394180,-122.267558,3.8,16.485,32.965,42.071,1513.33,0.0,0.670,15.522,15.486, NaN,24.072,   NaN,15.19,1020.85,81.44,15.27,203.2,196.9,4.0,4.7,338.9,333.0,4.3,4.9,NaN, NaN,17.2,49.2,39.5,1114819758,1114819758,1,0.9,000558,000558,120.0,34.394228,-122.267672,0.87,NaN,NaN,16.489, NaN,NaN,NaN, NaN, NaN
20050430,000947,1328820,34.394148,-122.267425,3.8,16.478,32.969,42.069,1719.52,0.0,0.651,15.522,15.488, NaN,24.077,   NaN,15.19,1020.87,81.06,15.22,224.4,216.6,3.7,4.7,339.3,332.8,3.9,4.9,NaN, NaN,17.4,109.1,129.3,1114819788,1114819788,1,1.3,000588,000588,97.4,34.394152,-122.267568,1.20,NaN,NaN,16.482, NaN,NaN,NaN, NaN, NaN
20050430,001018,1328851,34.394187,-122.267140,3.7,16.485,32.961,42.067,1403.06,0.0,0.651,15.520,15.484, NaN,24.069,   NaN,15.25,1020.86,81.30,15.25,243.5,238.5,3.2,4.6,323.1,328.4,3.4,4.8,NaN, NaN,17.5,40.4,85.9,1114819818,1114819818,1,2.0,000618,000618,67.0,34.394127,-122.267280,1.74,NaN,NaN,16.489, NaN,NaN,NaN, NaN, NaN
20050430,001047,1328880,34.394387,-122.266808,3.6,16.471,32.969,42.063,803.29,0.0,0.689,15.504,15.466, NaN,24.079,   NaN,15.11,1020.85,80.99,15.26,268.9,262.7,2.3,5.0,304.6,323.5,2.5,5.1,NaN, NaN,16.8,69.0,57.3,1114819848,1114819848,1,2.5,000648,000648,55.4,34.394293,-122.266950,2.06,NaN,NaN,16.475, NaN,NaN,NaN, NaN, NaN
20050430,001117,1328910,34.394650,-122.266455,3.7,16.474,32.966,42.062,669.77,0.0,0.689,15.485,15.448, NaN,24.076,   NaN,14.85,1020.81,80.84,15.20,288.4,277.5,2.5,5.5,305.9,321.1,2.4,5.3,NaN, NaN,16.9,33.7,43.6,1114819878,1114819878,1,3.4,000678,000678,58.4,34.394558,-122.266592,2.52,NaN,NaN,16.478, NaN,NaN,NaN, NaN, NaN
20050430,001148,1328941,34.394920,-122.266032,3.7,16.469,32.966,42.057,949.21,0.0,0.670,15.480,15.441, NaN,24.077,   NaN,14.66,1020.81,80.97,15.09,282.3,278.4,3.2,5.7,306.7,319.3,3.1,5.6,NaN, NaN,17.0,49.4,46.2,1114819908,1114819908,1,3.3,000708,000708,58.7,34.394842,-122.266173,2.84,NaN,NaN,16.473, NaN,NaN,NaN, NaN, NaN
20050430,001217,1328970,34.395202,-122.265580,3.7,16.462,32.971,42.056,1128.75,0.0,0.689,15.477,15.439, NaN,24.082,   NaN,14.58,1020.81,81.18,15.04,276.2,277.2,3.1,5.7,299.1,317.9,3.3,5.6,NaN, NaN,15.6,35.5,46.9,1114819938,1114819938,1,3.9,000737,000738,59.1,34.395138,-122.265715,3.07,NaN,NaN,16.466, NaN,NaN,NaN, NaN, NaN
20050430,001248,1329001,34.395522,-122.265088,3.7,16.463,32.968,42.053,1263.76,0.0,0.689,15.479,15.443, NaN,24.080,   NaN,14.57,1020.81,81.33,15.06,274.4,277.4,3.3,5.6,300.6,317.8,3.4,5.5,NaN, NaN,15.3,45.6,50.4,1114819968,1114819968,1,3.7,000768,000768,59.4,34.395445,-122.265238,3.13,NaN,NaN,16.467, NaN,NaN,NaN, NaN, NaN
20050430,001317,1329030,34.395838,-122.264603,3.7,16.450,32.976,42.050,1332.25,0.0,0.670,15.483,15.445, NaN,24.089,   NaN,14.53,1020.84,81.50,15.02,284.4,277.6,3.0,5.2,297.1,315.9,3.1,5.1,NaN, NaN,16.3,81.1,64.7,1114819998,1114819998,1,3.7,000798,000798,59.0,34.395753,-122.264745,3.38,NaN,NaN,16.454, NaN,NaN,NaN, NaN, NaN
20050430,001347,1329060,34.396268,-122.263902,3.8,16.458,32.967,42.047,1029.27,0.0,0.670,15.487,15.453, NaN,24.080,   NaN,14.56,1020.82,81.76,15.05,286.7,279.7,2.8,5.2,286.5,313.3,3.1,5.0,NaN, NaN,15.6,49.2,47.2,1114820028,1114820028,1,6.6,000828,000828,60.1,34.396180,-122.264043,5.67,NaN,NaN,16.462, NaN,NaN,NaN, NaN, NaN
20050430,001418,1329091,34.396865,-122.262810,3.8,16.450,32.970,42.044,1311.47,0.0,0.670,15.504,15.468, NaN,24.084,   NaN,14.52,1020.80,81.75,15.05,289.5,288.0,4.2,6.0,299.1,315.0,4.2,5.5,NaN, NaN,15.7,57.3,54.4,1114820058,1114820058,1,8.4,000858,000858,59.5,34.396782,-122.262950,7.76,NaN,NaN,16.454, NaN,NaN,NaN, NaN, NaN
20050430,001447,1329120,34.397552,-122.261575,3.8,16.444,32.975,42.043,1091.39,0.0,0.689,15.529,15.494, NaN,24.089,   NaN,14.47,1020.80,81.86,14.99,293.5,292.9,5.1,6.6,303.1,313.8,5.0,6.1,NaN, NaN,15.0,53.0,55.5,1114820088,1114820088,1,8.8,000888,000888,59.4,34.397472,-122.261715,8.63,NaN,NaN,16.448, NaN,NaN,NaN, NaN, NaN
20050430,001517,1329150,34.398322,-122.260203,3.8,16.429,32.981,42.037,1085.47,0.0,0.689,15.547,15.514, NaN,24.098,   NaN,14.55,1020.77,82.37,15.02,297.8,297.6,5.8,6.9,305.9,313.9,5.2,6.0,NaN, NaN,17.2,58.0,59.0,1114820118,1114820118,1,10.6,000918,000918,58.5,34.398242,-122.260333,9.71,NaN,NaN,16.433, NaN,NaN,NaN, NaN, NaN
20050430,001547,1329180,34.399140,-122.258720,3.8,16.433,32.976,42.034,1133.16,0.0,0.670,15.560,15.526, NaN,24.093,   NaN,14.50,1020.74,82.34,15.03,306.3,306.2,6.7,7.1,315.1,318.0,5.2,5.5,NaN, NaN,16.5,58.7,57.5,1114820148,1114820148,1,11.1,000948,000948,59.4,34.399062,-122.258853,10.18,NaN,NaN,16.437, NaN,NaN,NaN, NaN, NaN
20050430,001618,1329211,34.399972,-122.257220,3.9,16.434,32.971,42.029,816.66,0.0,0.670,15.568,15.534, NaN,24.088,   NaN,14.47,1020.78,82.65,14.99,308.7,308.2,7.4,7.5,319.5,320.3,5.6,5.7,NaN, NaN,16.7,57.4,56.3,1114820178,1114820178,1,11.1,000978,000978,58.5,34.399888,-122.257350,10.46,NaN,NaN,16.438, NaN,NaN,NaN, NaN, NaN
20050430,001647,1329240,34.400778,-122.255750,3.8,16.437,32.964,42.024,1169.61,0.0,0.670,15.567,15.534, NaN,24.083,   NaN,14.44,1020.75,82.64,14.97,306.3,306.4,8.0,8.2,321.2,322.8,6.2,6.4,NaN, NaN,15.9,56.9,56.7,1114820208,1114820207,1,10.8,001007,001007,58.5,34.400695,-122.255878,10.38,NaN,NaN,16.441, NaN,NaN,NaN, NaN, NaN
20050430,001717,1329270,34.401650,-122.254200,3.8,16.441,32.958,42.021,871.46,0.0,0.670,15.563,15.530, NaN,24.077,   NaN,14.40,1020.80,82.71,14.92,304.7,304.9,7.8,8.1,318.5,320.2,6.3,6.4,NaN, NaN,15.9,53.3,52.6,1114820238,1114820238,1,11.1,001038,001038,59.1,34.401562,-122.254332,10.33,NaN,NaN,16.445, NaN,NaN,NaN, NaN, NaN
20050430,001747,1329300,34.402472,-122.252697,3.8,16.454,32.944,42.017,1016.62,0.0,0.670,15.567,15.536, NaN,24.063,   NaN,14.37,1020.77,82.65,14.88,304.3,304.3,7.4,7.8,315.4,318.3,6.0,6.3,NaN, NaN,14.9,56.5,55.1,1114820268,1114820268,1,10.7,001068,001068,59.4,34.402407,-122.252828,10.25,NaN,NaN,16.458, NaN,NaN,NaN, NaN, NaN
20050430,001817,1329330,34.403320,-122.251202,3.8,16.466,32.933,42.016,989.93,0.0,0.708,15.576,15.542, NaN,24.052,   NaN,14.38,1020.77,82.84,14.84,305.9,305.6,7.7,7.9,319.1,320.0,6.1,6.2,NaN, NaN,15.1,49.7,51.3,1114820298,1114820298,1,10.8,001098,001098,59.3,34.403252,-122.251333,10.26,NaN,NaN,16.470, NaN,NaN,NaN, NaN, NaN
20050430,001847,1329360,34.404135,-122.249687,3.8,16.471,32.929,42.017,864.66,0.0,0.708,15.587,15.555, NaN,24.048,   NaN,14.38,1020.78,82.72,14.83,306.6,306.7,7.9,7.8,320.8,320.2,6.2,6.0,NaN, NaN,15.5,61.9,62.6,1114820328,1114820328,1,11.3,001128,001128,57.4,34.404078,-122.249810,10.27,NaN,NaN,16.475, NaN,NaN,NaN, NaN, NaN
20050430,001917,1329390,34.404988,-122.248198,3.8,16.483,32.919,42.017,981.91,0.0,0.689,15.589,15.556, NaN,24.038,   NaN,14.36,1020.79,82.77,14.81,306.0,306.7,7.5,7.5,317.0,318.1,5.9,5.8,NaN, NaN,15.6,60.9,54.5,1114820358,1114820358,1,10.8,001158,001158,60.4,34.404925,-122.248325,10.49,NaN,NaN,16.487, NaN,NaN,NaN, NaN, NaN
20050430,001948,1329421,34.405802,-122.246700,3.8,16.485,32.921,42.020,991.87,0.0,0.746,15.587,15.554, NaN,24.039,   NaN,14.42,1020.76,82.99,14.86,307.7,308.1,7.6,7.6,319.9,320.6,5.8,5.8,NaN, NaN,13.0,47.5,55.8,1114820388,1114820388,1,10.2,001188,001188,58.9,34.405723,-122.246830,10.21,NaN,NaN,16.489, NaN,NaN,NaN, NaN, NaN
20050430,002018,1329451,34.406637,-122.245198,3.8,16.487,32.923,42.025,848.68,0.0,0.689,15.599,15.566, NaN,24.040,   NaN,14.38,1020.76,82.83,14.83,307.9,308.2,8.3,8.1,325.3,324.3,6.3,6.1,NaN, NaN,13.0,54.5,55.4,1114820418,1114820418,1,10.8,001218,001218,58.4,34.406552,-122.245328,10.24,NaN,NaN,16.491, NaN,NaN,NaN, NaN, NaN
20050430,002047,1329480,34.407478,-122.243683,3.8,16.492,32.924,42.031,747.18,0.0,0.708,15.616,15.582, NaN,24.039,   NaN,14.36,1020.78,82.90,14.80,304.6,305.9,8.0,8.0,319.9,320.9,6.4,6.3,NaN, NaN,13.1,55.6,57.1,1114820448,1114820448,1,10.8,001248,001248,58.9,34.407388,-122.243812,10.20,NaN,NaN,16.496, NaN,NaN,NaN, NaN, NaN
20050430,002117,1329510,34.408313,-122.242168,3.8,16.490,32.930,42.036,927.32,0.0,0.670,15.628,15.593, NaN,24.044,   NaN,14.40,1020.74,82.91,14.86,305.1,306.1,7.8,7.9,318.6,320.0,6.3,6.2,NaN, NaN,13.0,57.1,57.6,1114820478,1114820478,1,11.1,001278,001278,58.5,34.408233,-122.242293,10.21,NaN,NaN,16.494, NaN,NaN,NaN, NaN, NaN
20050430,002147,1329540,34.409125,-122.240705,3.8,16.497,32.928,42.039,748.92,0.0,0.708,15.623,15.589, NaN,24.041,   NaN,14.35,1020.75,82.83,14.81,306.0,307.0,7.5,7.6,317.0,319.1,5.9,5.9,NaN, NaN,13.5,58.2,58.0,1114820508,1114820508,1,11.1,001307,001308,58.4,34.409075,-122.240778,10.32,NaN,NaN,16.501, NaN,NaN,NaN, NaN, NaN
20050430,002217,1329570,34.409987,-122.239193,3.8,16.497,32.930,42.042,1042.84,0.0,0.689,15.620,15.584, NaN,24.042,   NaN,14.44,1020.75,83.15,14.86,305.0,305.9,7.2,7.7,314.1,318.4,5.9,6.1,NaN, NaN,13.5,56.1,55.6,1114820538,1114820538,1,11.2,001337,001338,58.5,34.409928,-122.239265,10.35,NaN,NaN,16.501, NaN,NaN,NaN, NaN, NaN
20050430,002247,1329600,34.410833,-122.237687,3.8,16.501,32.929,42.045,934.92,0.0,0.689,15.606,15.569, NaN,24.041,   NaN,14.42,1020.71,83.00,14.90,303.7,304.8,7.6,8.2,315.4,320.4,6.2,6.5,NaN, NaN,13.7,48.4,50.3,1114820568,1114820568,1,11.4,001367,001368,59.7,34.410772,-122.237758,10.26,NaN,NaN,16.505, NaN,NaN,NaN, NaN, NaN
20050430,002317,1329630,34.411670,-122.236115,3.8,16.506,32.927,42.047,789.71,0.0,0.689,15.587,15.553, NaN,24.038,   NaN,14.39,1020.71,83.03,14.84,301.7,303.2,7.6,8.3,314.5,320.3,6.4,6.8,NaN, NaN,13.7,58.0,57.7,1114820598,1114820598,1,10.9,001398,001398,58.9,34.411585,-122.236242,10.21,NaN,NaN,16.510, NaN,NaN,NaN, NaN, NaN
20050430,002347,1329660,34.412510,-122.234607,3.8,16.513,32.925,42.051,775.77,0.0,0.689,15.585,15.551, NaN,24.035,   NaN,14.36,1020.73,83.01,14.82,301.2,303.3,7.4,8.2,312.7,319.7,6.3,6.7,NaN, NaN,13.7,58.4,61.6,1114820628,1114820628,1,11.0,001428,001428,58.0,34.412427,-122.234732,10.25,NaN,NaN,16.517, NaN,NaN,NaN, NaN, NaN
20050430,002417,1329690,34.413352,-122.233092,3.8,16.525,32.918,42.055,756.04,0.0,0.670,15.578,15.544, NaN,24.027,   NaN,14.32,1020.72,82.88,14.78,302.3,303.2,7.2,8.0,311.9,318.2,6.1,6.5,NaN, NaN,13.6,54.3,53.6,1114820658,1114820658,1,10.9,001458,001458,59.9,34.413270,-122.233217,10.23,NaN,NaN,16.529, NaN,NaN,NaN, NaN, NaN
20050430,002447,1329720,34.414183,-122.231578,3.8,16.529,32.918,42.059,792.28,0.0,0.689,15.574,15.538, NaN,24.026,   NaN,14.34,1020.72,83.08,14.80,304.1,303.8,6.9,7.7,311.1,317.3,5.7,6.3,NaN, NaN,12.9,58.0,57.0,1114820688,1114820688,1,9.9,001488,001488,59.7,34.414098,-122.231705,10.30,NaN,NaN,16.533, NaN,NaN,NaN, NaN, NaN
20050430,002517,1329750,34.415018,-122.230053,3.8,16.532,32.920,42.064,1017.16,0.0,0.670,15.565,15.533, NaN,24.027,   NaN,14.34,1020.71,83.10,14.82,307.3,306.9,7.5,7.9,318.7,321.2,5.8,6.1,NaN, NaN,13.8,56.2,58.4,1114820718,1114820718,1,11.0,001518,001518,58.7,34.414928,-122.230183,10.15,NaN,NaN,16.536, NaN,NaN,NaN, NaN, NaN
20050430,002547,1329780,34.415830,-122.228557,3.8,16.526,32.930,42.069,879.46,0.0,0.651,15.565,15.530, NaN,24.036,   NaN,14.36,1020.67,83.10,14.81,305.5,306.5,8.2,8.3,322.1,323.8,6.5,6.5,NaN, NaN,14.9,52.6,54.9,1114820748,1114820748,1,10.9,001548,001548,58.2,34.415753,-122.228682,10.28,NaN,NaN,16.530, NaN,NaN,NaN, NaN, NaN
20050430,002617,1329810,34.416660,-122.227050,3.8,16.522,32.937,42.074,797.51,0.0,0.651,15.565,15.531, NaN,24.042,   NaN,14.39,1020.71,83.15,14.85,301.0,302.6,7.5,8.4,313.3,320.2,6.4,6.9,NaN, NaN,15.4,57.3,57.1,1114820778,1114820778,1,10.4,001578,001578,59.2,34.416588,-122.227175,10.22,NaN,NaN,16.526, NaN,NaN,NaN, NaN, NaN
20050430,002647,1329840,34.417480,-122.225543,3.8,16.523,32.941,42.079,867.40,0.0,0.670,15.559,15.524, NaN,24.045,   NaN,14.43,1020.67,83.31,14.88,299.1,300.4,6.9,8.2,308.2,317.0,6.2,6.9,NaN, NaN,15.6,57.7,56.6,1114820808,1114820808,1,11.1,001608,001608,59.6,34.417408,-122.225668,10.19,NaN,NaN,16.527, NaN,NaN,NaN, NaN, NaN
20050430,002718,1329871,34.418295,-122.224040,3.8,16.515,32.950,42.082,779.63,0.0,0.689,15.551,15.517, NaN,24.054,   NaN,14.37,1020.69,83.19,14.87,299.2,299.7,6.8,8.1,308.0,316.4,6.2,7.0,NaN, NaN,15.9,58.4,62.0,1114820838,1114820838,1,11.0,001638,001638,57.6,34.418216,-122.224163,10.21,NaN,NaN,16.519, NaN,NaN,NaN, NaN, NaN
20050430,002748,1329901,34.419113,-122.222537,3.8,16.505,32.960,42.083,702.21,0.0,0.670,15.558,15.525, NaN,24.064,   NaN,14.35,1020.70,83.38,14.82,301.0,300.1,6.6,7.8,307.2,314.9,5.8,6.7,NaN, NaN,15.5,52.7,59.5,1114820868,1114820868,1,10.7,001668,001668,58.2,34.419025,-122.222657,10.18,NaN,NaN,16.509, NaN,NaN,NaN, NaN, NaN
20050430,002818,1329931,34.419926,-122.221040,3.8,16.511,32.955,42.083,702.63,0.0,0.689,15.568,15.534, NaN,24.059,   NaN,14.41,1020.68,83.46,14.85,302.8,301.2,6.6,7.7,308.6,314.9,5.7,6.5,NaN, NaN,15.3,54.7,56.7,1114820898,1114820898,1,11.2,001698,001698,58.5,34.419850,-122.221160,10.23,NaN,NaN,16.515, NaN,NaN,NaN, NaN, NaN
20050430,002847,1329960,34.420751,-122.219542,3.8,16.500,32.962,42.081,938.94,0.0,0.689,15.578,15.543, NaN,24.066,   NaN,14.40,1020.69,83.44,14.85,302.4,301.4,6.9,7.9,310.7,316.6,5.9,6.7,NaN, NaN,14.6,52.4,55.5,1114820928,1114820928,1,10.7,001728,001728,58.5,34.420663,-122.219662,10.26,NaN,NaN,16.504, NaN,NaN,NaN, NaN, NaN
20050430,002917,1329990,34.421566,-122.218050,3.8,16.498,32.963,42.080,783.52,0.0,0.689,15.585,15.549, NaN,24.068,   NaN,14.40,1020.71,83.50,14.84,300.5,300.6,6.8,7.8,308.7,315.5,6.0,6.7,NaN, NaN,15.4,56.1,54.9,1114820958,1114820958,1,11.2,001758,001758,59.0,34.421488,-122.218172,10.44,NaN,NaN,16.502, NaN,NaN,NaN, NaN, NaN
20050430,002947,1330020,34.422381,-122.216567,3.9,16.501,32.959,42.079,873.57,0.0,0.670,15.569,15.534, NaN,24.064,   NaN,14.43,1020.68,83.57,14.86,300.5,301.0,6.7,7.7,308.2,315.6,5.9,6.6,NaN, NaN,14.5,55.8,55.2,1114820988,1114820988,1,10.1,001788,001788,59.7,34.422306,-122.216692,10.23,NaN,NaN,16.505, NaN,NaN,NaN, NaN, NaN
20050430,003018,1330051,34.423200,-122.215078,3.8,16.494,32.961,42.075,720.76,0.0,0.670,15.545,15.509, NaN,24.067,   NaN,14.37,1020.73,83.46,14.81,300.1,300.1,6.5,7.7,306.6,314.4,5.9,6.6,NaN, NaN,15.0,63.1,54.4,1114821018,1114821018,1,10.8,001818,001818,59.2,34.423118,-122.215208,10.39,NaN,NaN,16.498, NaN,NaN,NaN, NaN, NaN
20050430,003047,1330080,34.424018,-122.213575,3.8,16.487,32.966,42.074,873.17,0.0,0.689,15.515,15.476, NaN,24.072,   NaN,14.38,1020.73,83.64,14.81,299.0,300.1,6.5,7.6,305.6,313.9,5.9,6.5,NaN, NaN,14.5,53.6,55.8,1114821048,1114821048,1,10.7,001848,001848,58.7,34.423925,-122.213705,10.34,NaN,NaN,16.491, NaN,NaN,NaN, NaN, NaN
20050430,003117,1330110,34.424825,-122.212063,3.8,16.490,32.961,42.071,760.17,0.0,0.689,15.492,15.456, NaN,24.069,   NaN,14.36,1020.74,83.47,14.80,298.1,298.6,6.6,7.7,305.3,312.9,6.1,6.8,NaN, NaN,14.7,58.9,58.0,1114821078,1114821078,1,11.0,001878,001878,59.2,34.424741,-122.212192,10.37,NaN,NaN,16.494, NaN,NaN,NaN, NaN, NaN
20050430,003147,1330140,34.425636,-122.210568,3.8,16.496,32.955,42.070,848.45,0.0,0.708,15.488,15.450, NaN,24.062,   NaN,14.40,1020.69,83.61,14.83,298.2,298.4,6.7,7.8,306.6,313.8,6.2,6.9,NaN, NaN,15.1,55.5,59.3,1114821108,1114821108,1,10.8,001908,001908,58.1,34.425548,-122.210700,10.18,NaN,NaN,16.500, NaN,NaN,NaN, NaN, NaN
20050430,003217,1330170,34.426456,-122.209085,3.9,16.501,32.948,42.067,683.68,0.0,0.708,15.482,15.445, NaN,24.056,   NaN,14.35,1020.74,83.37,14.79,299.9,300.4,6.6,7.7,306.7,314.7,6.0,6.6,NaN, NaN,14.9,60.7,56.1,1114821138,1114821138,1,10.7,001938,001938,58.5,34.426376,-122.209207,10.33,NaN,NaN,16.505, NaN,NaN,NaN, NaN, NaN
20050430,003247,1330200,34.427270,-122.207582,3.8,16.504,32.943,42.064,689.29,0.0,0.708,15.469,15.433, NaN,24.051,   NaN,14.45,1020.73,83.75,14.86,302.2,302.7,7.2,7.9,312.4,317.7,6.2,6.5,NaN, NaN,16.5,56.2,56.4,1114821168,1114821168,1,10.8,001968,001968,58.5,34.427195,-122.207708,10.39,NaN,NaN,16.508, NaN,NaN,NaN, NaN, NaN
20050430,003317,1330230,34.428076,-122.206087,3.8,16.492,32.955,42.066,770.71,0.0,0.689,15.417,15.378, NaN,24.063,   NaN,14.39,1020.70,83.49,14.85,304.6,305.3,8.2,8.4,321.0,323.0,6.6,6.7,NaN, NaN,17.0,56.5,55.3,1114821198,1114821198,1,10.4,001998,001998,59.4,34.428008,-122.206212,10.24,NaN,NaN,16.496, NaN,NaN,NaN, NaN, NaN
20050430,003347,1330260,34.428888,-122.204580,3.8,16.480,32.964,42.066,716.55,0.0,0.708,15.360,15.323, NaN,24.073,   NaN,14.36,1020.73,83.46,14.83,303.5,305.2,8.4,8.6,321.7,324.5,6.9,6.9,NaN, NaN,16.1,59.2,57.6,1114821228,1114821228,1,10.5,002028,002028,58.6,34.428813,-122.204708,10.31,NaN,NaN,16.484, NaN,NaN,NaN, NaN, NaN
20050430,003418,1330291,34.429693,-122.203100,3.8,16.456,32.985,42.066,684.42,0.0,0.689,15.391,15.357, NaN,24.094,   NaN,14.32,1020.77,83.41,14.77,302.7,303.5,7.5,8.2,315.3,320.4,6.4,6.7,NaN, NaN,16.7,54.5,59.2,1114821258,1114821258,1,10.4,002058,002058,58.2,34.429616,-122.203225,10.21,NaN,NaN,16.460, NaN,NaN,NaN, NaN, NaN
20050430,003448,1330321,34.430505,-122.201610,3.8,16.438,32.999,42.065,749.59,0.0,0.708,15.431,15.398, NaN,24.109,   NaN,14.34,1020.77,83.52,14.75,300.8,300.8,6.5,7.6,306.9,314.4,5.8,6.5,NaN, NaN,15.8,60.0,58.1,1114821288,1114821288,1,10.1,002088,002088,58.9,34.430435,-122.201735,10.41,NaN,NaN,16.442, NaN,NaN,NaN, NaN, NaN
20050430,003517,1330350,34.431308,-122.200125,3.8,16.431,33.004,42.064,831.52,0.0,0.727,15.448,15.413, NaN,24.115,   NaN,14.40,1020.81,83.56,14.82,299.2,299.3,6.4,7.5,305.1,312.9,5.8,6.6,NaN, NaN,16.5,59.2,57.3,1114821318,1114821318,1,10.1,002118,002118,59.0,34.431235,-122.200252,10.28,NaN,NaN,16.435, NaN,NaN,NaN, NaN, NaN
20050430,003548,1330381,34.432108,-122.198647,3.8,16.425,33.002,42.056,741.38,0.0,0.708,15.457,15.420, NaN,24.115,   NaN,14.42,1020.79,83.54,14.84,301.3,301.2,6.6,7.6,308.6,315.6,5.8,6.5,NaN, NaN,16.6,62.5,61.6,1114821348,1114821348,1,10.2,002148,002148,58.7,34.432043,-122.198768,10.31,NaN,NaN,16.429, NaN,NaN,NaN, NaN, NaN
20050430,003617,1330410,34.432920,-122.197172,3.8,16.413,33.005,42.049,720.21,0.0,0.708,15.459,15.423, NaN,24.120,   NaN,14.35,1020.79,83.31,14.79,302.7,302.8,7.1,8.0,313.1,319.2,6.0,6.6,NaN, NaN,16.8,54.8,55.9,1114821378,1114821378,1,10.9,002178,002178,58.5,34.432848,-122.197285,10.36,NaN,NaN,16.417, NaN,NaN,NaN, NaN, NaN